Hourly Weather Roundup
Issued by NWS Central Illinois

Home | Current Version | Previous Version | Graphics & Text | Print | Product List | Glossary On
Versions: 1 2 3 4 5 6 7 8 9 10 11 12 13 14 15 16 17 18 19 20 21 22 23 24 25 26 27 28 29 30 31 32 33 34 35 36 37 38 39 40 41 42 43 44 45 46 47 48 49 50
000
NZUS43 KILX 241710
HWRILX

AREA WEATHER ROUNDUP
NATIONAL WEATHER SERVICE, LINCOLN IL
1200 PM CDT SAT SEP 24 2016


CITY           SKY/WX    TMP DP  RH WIND       PRES   REMARKS
BLOOMINGTON    SUNNY     79  68  69 VRB3      30.16F HX  81
CHAMPAIGN      SUNNY     85  67  54 NE6       30.15S HX  87
DANVILLE       SUNNY     80  67  65 E6        30.13F HX  82
DECATUR        SUNNY     84  68  58 CALM      30.13F HX  87
EFFINGHAM      SUNNY     85  67  54 CALM      30.14F HX  88
FLORA          SUNNY     87  67  51 CALM      30.12F HX  89
GALESBURG        N/A    N/A N/A N/A E6        30.14
JACKSONVILLE   MOSUNNY   86  66  51 SW6       30.11F HX  88
LACON          CLOUDY    73  67  81 E6        30.14F HAZE
LAWRENCEVILLE  SUNNY     87  65  47 CALM      30.13F HX  89
LITCHFIELD     SUNNY     87  63  45 E7        30.12F HX  87
$$


CITY           SKY/WX    TMP DP  RH WIND       PRES   REMARKS
LINCOLN        MOSUNNY   84  70  61 CALM      30.13F HX  88
MACOMB         SUNNY     81  69  66 E3        30.14F HX  84
MATTOON        SUNNY     83  64  52 S5        30.13F HX  84
MT CARMEL AP   SUNNY     85  64  49 NW6       30.12F HX  86
OLNEY-NOBLE AP MOSUNNY   86  64  48 CALM      30.13S HX  87
PARIS          SUNNY     85  69  59 CALM      30.14F HX  89
PEORIA         SUNNY     79  70  74 E6        30.13F HX  82
PONTIAC        CLOUDY    77  70  77 E6        30.17S
RANTOUL        SUNNY     83  69  62 E5        30.14F HX  87
ROBINSON       SUNNY     85  66  53 CALM      30.14F HX  87
SPRINGFIELD    SUNNY     86  67  52 CALM      30.12F HX  89
TAYLORVILLE    SUNNY     86  65  49 SE3       30.12F HX  88
$$

...REGIONAL REPORTS...


CITY           SKY/WX    TMP DP  RH WIND       PRES   REMARKS
CHICAGO O`HARE CLOUDY    69  62  78 NE10      30.19F
KANKAKEE       CLOUDY    74  67  78 E6        30.18F
MOLINE         CLOUDY    73  67  81 E9        30.14F HAZE
MOUNT STERLING SUNNY     85  68  57 SE6       30.11S HX  88
MOUNT VERNON   SUNNY     86  66  51 CALM      30.13S HX  88
PITTSFIELD     MOSUNNY   85  67  54 S5        30.12S HX  88
QUINCY         MOSUNNY   86  65  49 CALM      30.10F HX  88
ROCKFORD       CLOUDY    71  63  75 E7        30.19F
$$


CITY           SKY/WX    TMP DP  RH WIND       PRES   REMARKS
BURLINGTON     SUNNY     72  70  93 E6        30.11F
CEDAR RAPIDS   CLOUDY    71  69  93 E10       30.13S FOG
DES MOINES     MOSUNNY   83  68  60 SE13      30.04F HX  86
KIRKSVILLE     SUNNY     84  69  60 S13       30.09F HX  88
OTTUMWA        SUNNY     82  66  58 SE12      30.08F HX  84
ST LOUIS       MOSUNNY   88  66  48 S9        30.11F HX  90
$$


CITY           SKY/WX    TMP DP  RH WIND       PRES   REMARKS
TERRE HAUTE    SUNNY     83  67  58 NE3       30.14F HX  85
EVANSVILLE     SUNNY     89  66  46 VRB6      30.13F HX  91
INDIANAPOLIS   PTSUNNY   75  67  76 VRB6      30.16F HAZE
LAFAYETTE      SUNNY     72  67  84 E7        30.17S
MADISON        CLOUDY    65  59  81 E12       30.21S
MILWAUKEE      CLOUDY    67  60  78 E10       30.23F
$$





USA.gov is the U.S. government's official web portal to all federal, state and local government web resources and services.